EWG4MR EDDL-EDDM

Flight info

Callsign EWG4MR
Flight time 1h 6m
Altitude 27000
Route DODEN7Z/05R DODEN Y853 BOMBI T104 ROKIL ROKIL1B
Aircraft B738/M-SDE2E3FGHIRWXY/LB1

Departure

Time 2026-05-06 17:24
Airport Düsseldorf Airport (EDDL)

Arrival

Time 2026-05-06 18:30
Airport Munich Airport (EDDM)
Time Latitude Longitude Altitude Speed Heading
2026-05-06 16:59 51.28155 6.76731 128 ft 0 kts 275°
2026-05-06 17:06 51.28155 6.76732 128 ft 0 kts 275°
2026-05-06 17:13 51.28154 6.76752 128 ft 2 kts 274°
2026-05-06 17:13 51.28153 6.76776 128 ft 2 kts 291°
2026-05-06 17:14 51.28144 6.76797 128 ft 2 kts 314°
2026-05-06 17:14 51.28133 6.76811 128 ft 2 kts 337°
2026-05-06 17:14 51.28118 6.76816 128 ft 2 kts
2026-05-06 17:14 51.28108 6.76814 128 ft 0 kts 15°
2026-05-06 17:15 51.28101 6.76811 128 ft 0 kts 18°
2026-05-06 17:17 51.28104 6.76813 128 ft 0 kts 18°
2026-05-06 17:17 51.28144 6.76827 128 ft 7 kts 11°
2026-05-06 17:17 51.28199 6.76840 128 ft 10 kts
2026-05-06 17:18 51.28270 6.76854 128 ft 10 kts
2026-05-06 17:18 51.28324 6.76803 128 ft 9 kts 320°
2026-05-06 17:18 51.28371 6.76739 128 ft 8 kts 320°
2026-05-06 17:18 51.28412 6.76665 128 ft 9 kts 287°
2026-05-06 17:19 51.28389 6.76566 127 ft 9 kts 233°
2026-05-06 17:19 51.28338 6.76460 127 ft 13 kts 233°
2026-05-06 17:19 51.28283 6.76346 127 ft 12 kts 233°
2026-05-06 17:19 51.28229 6.76232 127 ft 14 kts 233°
2026-05-06 17:20 51.28169 6.76104 127 ft 14 kts 233°
2026-05-06 17:20 51.28108 6.75976 127 ft 14 kts 233°
2026-05-06 17:20 51.28048 6.75852 127 ft 14 kts 233°
2026-05-06 17:20 51.27989 6.75729 127 ft 14 kts 233°
2026-05-06 17:21 51.27929 6.75601 126 ft 14 kts 232°
2026-05-06 17:21 51.27876 6.75489 125 ft 9 kts 232°
2026-05-06 17:21 51.27842 6.75417 125 ft 7 kts 242°
2026-05-06 17:21 51.27847 6.75358 124 ft 3 kts 302°
2026-05-06 17:22 51.27866 6.75332 124 ft 3 kts 330°
2026-05-06 17:22 51.27890 6.75312 124 ft 4 kts 331°
2026-05-06 17:22 51.27928 6.75279 124 ft 6 kts 332°
2026-05-06 17:22 51.27972 6.75262 123 ft 6 kts 14°
2026-05-06 17:23 51.28006 6.75300 124 ft 5 kts 46°
2026-05-06 17:23 51.28037 6.75361 124 ft 14 kts 52°
2026-05-06 17:23 51.28245 6.75793 127 ft 89 kts 52°
2026-05-06 17:23 51.28786 6.76926 129 ft 162 kts 53°
2026-05-06 17:24 51.29491 6.78425 857 ft 169 kts 50°
2026-05-06 17:24 51.30184 6.79757 1980 ft 157 kts 46°
2026-05-06 17:24 51.30890 6.81121 2595 ft 167 kts 48°
2026-05-06 17:24 51.31630 6.82660 3114 ft 184 kts 50°
2026-05-06 17:25 51.32418 6.84336 3736 ft 196 kts 50°
2026-05-06 17:25 51.33276 6.86162 4315 ft 213 kts 51°
2026-05-06 17:25 51.34163 6.88117 4943 ft 227 kts 52°
2026-05-06 17:25 51.35032 6.90293 5556 ft 244 kts 62°
2026-05-06 17:26 51.35447 6.92994 6162 ft 264 kts 87°
2026-05-06 17:26 51.35225 6.95952 6959 ft 274 kts 97°
2026-05-06 17:26 51.34843 6.98966 7769 ft 281 kts 98°
2026-05-06 17:26 51.34457 7.02057 8549 ft 287 kts 98°
2026-05-06 17:27 51.34103 7.05161 9346 ft 291 kts 97°
2026-05-06 17:27 51.33762 7.08391 10118 ft 297 kts 96°
2026-05-06 17:27 51.33429 7.11677 10684 ft 310 kts 97°
2026-05-06 17:27 51.33040 7.15151 11195 ft 325 kts 102°
2026-05-06 17:28 51.32212 7.18584 11693 ft 340 kts 120°
2026-05-06 17:28 51.30686 7.21610 12218 ft 354 kts 134°
2026-05-06 17:28 51.28901 7.24371 12715 ft 366 kts 136°
2026-05-06 17:28 51.27010 7.27169 13213 ft 378 kts 137°
2026-05-06 17:29 51.25067 7.30077 13701 ft 390 kts 136°
2026-05-06 17:29 51.23088 7.33099 14207 ft 401 kts 136°
2026-05-06 17:29 51.21045 7.36265 14770 ft 410 kts 136°
2026-05-06 17:29 51.19011 7.39444 15408 ft 416 kts 136°
2026-05-06 17:30 51.16931 7.42710 16091 ft 421 kts 136°
2026-05-06 17:30 51.14836 7.45989 16772 ft 426 kts 136°
2026-05-06 17:30 51.12703 7.49288 17452 ft 430 kts 136°
2026-05-06 17:30 51.10572 7.52556 18173 ft 432 kts 137°
2026-05-06 17:31 51.08396 7.55873 18977 ft 432 kts 137°
2026-05-06 17:31 51.06226 7.59172 19850 ft 431 kts 137°
2026-05-06 17:31 51.04071 7.62441 20746 ft 428 kts 137°
2026-05-06 17:31 51.01943 7.65667 21650 ft 424 kts 138°
2026-05-06 17:32 50.99812 7.68893 22573 ft 419 kts 139°
2026-05-06 17:32 50.97711 7.71962 23480 ft 413 kts 141°
2026-05-06 17:32 50.95482 7.74788 24423 ft 405 kts 146°
2026-05-06 17:32 50.93197 7.77281 25367 ft 397 kts 149°
2026-05-06 17:33 50.90904 7.79588 25948 ft 398 kts 150°
2026-05-06 17:33 50.88501 7.81916 26229 ft 406 kts 151°
2026-05-06 17:33 50.86068 7.84246 26510 ft 415 kts 151°
2026-05-06 17:33 50.83617 7.86597 26768 ft 419 kts 151°
2026-05-06 17:34 50.81117 7.89003 26812 ft 418 kts 150°
2026-05-06 17:34 50.78658 7.91383 26813 ft 413 kts 150°
2026-05-06 17:34 50.76203 7.93767 26817 ft 413 kts 150°
2026-05-06 17:34 50.73769 7.96133 26815 ft 414 kts 150°
2026-05-06 17:35 50.71315 7.98522 26815 ft 413 kts 150°
2026-05-06 17:35 50.68861 8.00909 26817 ft 414 kts 150°
2026-05-06 17:35 50.66378 8.03325 26815 ft 413 kts 150°
2026-05-06 17:36 50.61512 8.08065 26816 ft 412 kts 150°
2026-05-06 17:36 50.59147 8.10587 26816 ft 413 kts 146°
2026-05-06 17:36 50.56867 8.13366 26817 ft 414 kts 143°
2026-05-06 17:36 50.54650 8.16260 26815 ft 414 kts 142°
2026-05-06 17:37 50.52463 8.19192 26813 ft 413 kts 141°
2026-05-06 17:37 50.50279 8.22135 26814 ft 413 kts 142°
2026-05-06 17:37 50.48089 8.25074 26811 ft 413 kts 142°
2026-05-06 17:37 50.45906 8.27979 26809 ft 412 kts 142°
2026-05-06 17:38 50.43719 8.30871 26806 ft 412 kts 142°
2026-05-06 17:38 50.41519 8.33761 26809 ft 412 kts 142°
2026-05-06 17:38 50.39317 8.36641 26807 ft 411 kts 142°
2026-05-06 17:38 50.37117 8.39509 26806 ft 412 kts 143°
2026-05-06 17:39 50.34917 8.42367 26803 ft 411 kts 142°
2026-05-06 17:39 50.32738 8.45194 26795 ft 410 kts 143°
2026-05-06 17:39 50.30545 8.48034 26792 ft 410 kts 143°
2026-05-06 17:39 50.28344 8.50880 26790 ft 410 kts 143°
2026-05-06 17:40 50.26173 8.53685 26791 ft 410 kts 143°
2026-05-06 17:40 50.23964 8.56534 26789 ft 405 kts 143°
2026-05-06 17:40 50.21864 8.59248 26787 ft 388 kts 143°
2026-05-06 17:40 50.19846 8.61853 26791 ft 372 kts 143°
2026-05-06 17:41 50.17906 8.64356 26791 ft 356 kts 143°
2026-05-06 17:41 50.16053 8.66743 26798 ft 340 kts 144°
2026-05-06 17:41 50.14277 8.69027 26800 ft 325 kts 144°
2026-05-06 17:41 50.12588 8.71195 26796 ft 309 kts 144°
2026-05-06 17:42 50.10957 8.73284 26798 ft 297 kts 144°
2026-05-06 17:42 50.09368 8.75311 26797 ft 297 kts 145°
2026-05-06 17:42 50.07749 8.77368 26790 ft 300 kts 144°
2026-05-06 17:42 50.06131 8.79427 26792 ft 300 kts 145°
2026-05-06 17:43 50.04480 8.81371 26794 ft 299 kts 151°
2026-05-06 17:43 50.02627 8.82760 26790 ft 292 kts 168°
2026-05-06 17:43 50.00627 8.83191 26792 ft 291 kts 182°
2026-05-06 17:43 49.98616 8.82874 26790 ft 290 kts 192°
2026-05-06 17:44 49.96669 8.82046 26789 ft 289 kts 203°
2026-05-06 17:44 49.94942 8.80445 26790 ft 291 kts 219°
2026-05-06 17:44 49.93555 8.78165 26793 ft 294 kts 231°
2026-05-06 17:44 49.92455 8.75484 26789 ft 296 kts 241°
2026-05-06 17:45 49.91769 8.72455 26792 ft 302 kts 257°
2026-05-06 17:45 49.91681 8.69163 26798 ft 308 kts 272°
2026-05-06 17:45 49.92074 8.65870 26798 ft 312 kts 283°
2026-05-06 17:45 49.92930 8.62772 26796 ft 318 kts 300°
2026-05-06 17:46 49.94365 8.60179 26803 ft 325 kts 316°
2026-05-06 17:46 49.96110 8.57958 26805 ft 325 kts 317°
2026-05-06 17:46 49.97856 8.55724 26808 ft 324 kts 316°
2026-05-06 17:46 49.99593 8.53452 26804 ft 325 kts 316°
2026-05-06 17:47 50.01315 8.51182 26808 ft 324 kts 316°
2026-05-06 17:47 50.03034 8.48917 26807 ft 323 kts 316°
2026-05-06 17:47 50.04731 8.46717 26804 ft 324 kts 319°
2026-05-06 17:47 50.06620 8.44796 26800 ft 328 kts 333°
2026-05-06 17:48 50.08836 8.43846 26811 ft 333 kts 355°
2026-05-06 17:48 50.11134 8.44086 26813 ft 336 kts 14°
2026-05-06 17:48 50.13331 8.45336 26814 ft 335 kts 29°
2026-05-06 17:48 50.15276 8.47285 26812 ft 335 kts 41°
2026-05-06 17:49 50.16873 8.49906 26807 ft 332 kts 60°
2026-05-06 17:49 50.17816 8.53115 26814 ft 328 kts 79°
2026-05-06 17:49 50.18217 8.56626 26809 ft 326 kts 88°
2026-05-06 17:49 50.18293 8.60105 26796 ft 320 kts 102°
2026-05-06 17:50 50.17684 8.63323 26805 ft 311 kts 124°
2026-05-06 17:50 50.16407 8.66008 26810 ft 304 kts 140°
2026-05-06 17:50 50.14802 8.68096 26811 ft 302 kts 146°
2026-05-06 17:50 50.13144 8.70153 26806 ft 303 kts 144°
2026-05-06 17:51 50.11551 8.72233 26805 ft 301 kts 143°
2026-05-06 17:51 50.09942 8.74367 26806 ft 302 kts 143°
2026-05-06 17:51 50.08355 8.76469 26802 ft 300 kts 144°
2026-05-06 17:51 50.06760 8.78568 26807 ft 303 kts 144°
2026-05-06 17:52 50.05143 8.80701 26802 ft 308 kts 143°
2026-05-06 17:52 50.03559 8.82895 26792 ft 302 kts 142°
2026-05-06 17:52 50.02016 8.85103 26792 ft 297 kts 141°
2026-05-06 17:52 50.00489 8.87292 26796 ft 307 kts 141°
2026-05-06 17:53 49.98888 8.89577 26789 ft 320 kts 141°
2026-05-06 17:53 49.97211 8.91955 26787 ft 333 kts 141°
2026-05-06 17:53 49.95462 8.94424 26791 ft 346 kts 141°
2026-05-06 17:53 49.93661 8.96965 26786 ft 358 kts 141°
2026-05-06 17:54 49.91785 8.99609 26787 ft 370 kts 141°
2026-05-06 17:54 49.89896 9.02271 26777 ft 382 kts 141°
2026-05-06 17:54 49.87897 9.05078 26777 ft 394 kts 141°
2026-05-06 17:54 49.85836 9.07972 26771 ft 404 kts 140°
2026-05-06 17:55 49.83772 9.10868 26782 ft 404 kts 140°
2026-05-06 17:55 49.81664 9.13824 26787 ft 404 kts 140°
2026-05-06 17:55 49.79586 9.16735 26782 ft 404 kts 140°
2026-05-06 17:55 49.77507 9.19644 26784 ft 404 kts 141°
2026-05-06 17:56 49.75449 9.22521 26783 ft 404 kts 140°
2026-05-06 17:56 49.73350 9.25445 26773 ft 403 kts 140°
2026-05-06 17:56 49.71269 9.28341 26786 ft 404 kts 140°
2026-05-06 17:56 49.69207 9.31205 26790 ft 402 kts 141°
2026-05-06 17:57 49.67123 9.34100 26787 ft 403 kts 141°
2026-05-06 17:57 49.65049 9.36981 26779 ft 403 kts 141°
2026-05-06 17:57 49.62955 9.39892 26781 ft 403 kts 141°
2026-05-06 17:57 49.60938 9.42852 26784 ft 404 kts 137°
2026-05-06 17:58 49.58999 9.46048 26790 ft 404 kts 135°
2026-05-06 17:58 49.57147 9.49303 26796 ft 405 kts 134°
2026-05-06 17:58 49.55324 9.52580 26786 ft 405 kts 133°
2026-05-06 17:58 49.53482 9.55893 26802 ft 405 kts 133°
2026-05-06 17:59 49.51649 9.59176 26803 ft 405 kts 133°
2026-05-06 17:59 49.49826 9.62417 26789 ft 405 kts 134°
2026-05-06 17:59 49.47972 9.65699 26799 ft 403 kts 134°
2026-05-06 17:59 49.46143 9.68910 26795 ft 403 kts 134°
2026-05-06 18:00 49.44291 9.72145 26801 ft 403 kts 135°
2026-05-06 18:00 49.42430 9.75384 26801 ft 400 kts 135°
2026-05-06 18:00 49.40626 9.78530 26802 ft 383 kts 135°
2026-05-06 18:00 49.38915 9.81514 26797 ft 367 kts 135°
2026-05-06 18:01 49.37266 9.84383 26800 ft 351 kts 135°
2026-05-06 18:01 49.35670 9.87150 26810 ft 337 kts 135°
2026-05-06 18:01 49.34138 9.89794 26815 ft 337 kts 136°
2026-05-06 18:01 49.32544 9.92529 26799 ft 342 kts 136°
2026-05-06 18:02 49.30964 9.95236 26427 ft 346 kts 135°
2026-05-06 18:02 49.29363 9.97984 25891 ft 345 kts 135°
2026-05-06 18:02 49.27766 10.00728 25360 ft 345 kts 135°
2026-05-06 18:02 49.26133 10.03526 24853 ft 365 kts 135°
2026-05-06 18:03 49.24395 10.06490 24363 ft 389 kts 134°
2026-05-06 18:03 49.22540 10.09656 24085 ft 402 kts 134°
2026-05-06 18:03 49.20703 10.12801 23838 ft 392 kts 134°
2026-05-06 18:03 49.18929 10.15845 23822 ft 374 kts 134°
2026-05-06 18:04 49.17237 10.18753 23813 ft 357 kts 134°
2026-05-06 18:04 49.15619 10.21532 23825 ft 346 kts 134°
2026-05-06 18:04 49.14015 10.24271 23822 ft 348 kts 134°
2026-05-06 18:04 49.12380 10.26977 23820 ft 349 kts 135°
2026-05-06 18:05 49.10709 10.29670 23821 ft 349 kts 135°
2026-05-06 18:05 49.09026 10.32356 23823 ft 348 kts 136°
2026-05-06 18:05 49.07347 10.35028 23824 ft 348 kts 135°
2026-05-06 18:05 49.05677 10.37691 23687 ft 343 kts 135°
2026-05-06 18:06 49.04039 10.40307 23115 ft 343 kts 135°
2026-05-06 18:06 49.02403 10.42922 22506 ft 344 kts 135°
2026-05-06 18:06 49.00744 10.45573 22028 ft 342 kts 135°
2026-05-06 18:06 48.99116 10.48175 21562 ft 341 kts 135°
2026-05-06 18:07 48.97467 10.50807 21025 ft 343 kts 135°
2026-05-06 18:07 48.95832 10.53415 20381 ft 345 kts 135°
2026-05-06 18:07 48.94162 10.56074 19745 ft 347 kts 135°
2026-05-06 18:07 48.92510 10.58705 19167 ft 346 kts 135°
2026-05-06 18:08 48.90861 10.61332 18665 ft 344 kts 135°
2026-05-06 18:08 48.89207 10.63966 18153 ft 341 kts 135°
2026-05-06 18:08 48.87599 10.66525 17677 ft 338 kts 137°
2026-05-06 18:08 48.85998 10.69069 17421 ft 329 kts 137°
2026-05-06 18:09 48.84423 10.71568 17163 ft 324 kts 137°
2026-05-06 18:09 48.82871 10.74023 16919 ft 323 kts 137°
2026-05-06 18:09 48.81312 10.76484 16826 ft 320 kts 137°
2026-05-06 18:09 48.79788 10.78883 16822 ft 322 kts 137°
2026-05-06 18:10 48.78209 10.81358 16825 ft 323 kts 137°
2026-05-06 18:10 48.76630 10.83832 16824 ft 323 kts 137°
2026-05-06 18:10 48.75072 10.86272 16825 ft 323 kts 137°
2026-05-06 18:10 48.73502 10.88731 16833 ft 323 kts 137°
2026-05-06 18:11 48.71941 10.91174 16836 ft 324 kts 137°
2026-05-06 18:11 48.70379 10.93617 16591 ft 327 kts 137°
2026-05-06 18:11 48.68796 10.96090 16142 ft 325 kts 137°
2026-05-06 18:11 48.67215 10.98493 15696 ft 321 kts 140°
2026-05-06 18:12 48.65557 11.00766 15245 ft 317 kts 142°
2026-05-06 18:12 48.63911 11.02917 14800 ft 314 kts 143°
2026-05-06 18:12 48.62267 11.05062 14349 ft 311 kts 143°
2026-05-06 18:12 48.60641 11.07209 13897 ft 310 kts 143°
2026-05-06 18:13 48.59027 11.09369 13447 ft 308 kts 142°
2026-05-06 18:13 48.57417 11.11538 12996 ft 307 kts 142°
2026-05-06 18:13 48.55839 11.13669 12549 ft 307 kts 142°
2026-05-06 18:13 48.54247 11.15818 12097 ft 305 kts 142°
2026-05-06 18:14 48.52672 11.17941 11651 ft 303 kts 142°
2026-05-06 18:14 48.51112 11.20043 11312 ft 301 kts 142°
2026-05-06 18:14 48.49556 11.22136 11065 ft 301 kts 142°
2026-05-06 18:14 48.47993 11.24238 10910 ft 292 kts 142°
2026-05-06 18:15 48.46503 11.26243 10598 ft 288 kts 142°
2026-05-06 18:15 48.44999 11.28261 10193 ft 287 kts 142°
2026-05-06 18:15 48.43534 11.30247 9825 ft 285 kts 139°
2026-05-06 18:15 48.42238 11.32541 9400 ft 290 kts 124°
2026-05-06 18:16 48.41587 11.35406 8992 ft 297 kts 97°
2026-05-06 18:16 48.41711 11.38483 8838 ft 297 kts 82°
2026-05-06 18:16 48.42048 11.41595 8812 ft 302 kts 82°
2026-05-06 18:16 48.42357 11.44744 8816 ft 300 kts 83°
2026-05-06 18:17 48.42612 11.47857 8828 ft 304 kts 85°
2026-05-06 18:17 48.42849 11.51020 8756 ft 301 kts 84°
2026-05-06 18:17 48.43080 11.54116 8508 ft 295 kts 84°
2026-05-06 18:17 48.43312 11.57168 8120 ft 296 kts 83°
2026-05-06 18:18 48.43549 11.60253 7827 ft 295 kts 83°
2026-05-06 18:18 48.43782 11.63322 7809 ft 297 kts 83°
2026-05-06 18:18 48.44019 11.66430 7730 ft 298 kts 84°
2026-05-06 18:18 48.44254 11.69495 7426 ft 295 kts 83°
2026-05-06 18:19 48.44491 11.72579 6989 ft 296 kts 83°
2026-05-06 18:19 48.44726 11.75638 6584 ft 297 kts 82°
2026-05-06 18:19 48.44964 11.78732 6133 ft 299 kts 82°
2026-05-06 18:19 48.45202 11.81836 5860 ft 294 kts 82°
2026-05-06 18:20 48.45433 11.84843 5498 ft 292 kts 82°
2026-05-06 18:20 48.45670 11.87924 5091 ft 294 kts 82°
2026-05-06 18:20 48.45904 11.90968 4718 ft 293 kts 82°
2026-05-06 18:20 48.46134 11.93997 4382 ft 291 kts 82°
2026-05-06 18:21 48.46366 11.97025 4046 ft 289 kts 81°
2026-05-06 18:21 48.46601 12.00018 3976 ft 287 kts 81°
2026-05-06 18:21 48.46830 12.03017 3980 ft 291 kts 82°
2026-05-06 18:21 48.47055 12.06037 3982 ft 291 kts 82°
2026-05-06 18:22 48.47281 12.09032 3974 ft 288 kts 81°
2026-05-06 18:22 48.47511 12.12055 3970 ft 288 kts 83°
2026-05-06 18:22 48.47374 12.15081 3967 ft 289 kts 106°
2026-05-06 18:22 48.46447 12.17735 3968 ft 289 kts 133°
2026-05-06 18:23 48.44863 12.19545 3966 ft 282 kts 161°
2026-05-06 18:23 48.42993 12.20372 3973 ft 277 kts 176°
2026-05-06 18:23 48.41161 12.20304 3970 ft 264 kts 201°
2026-05-06 18:23 48.39576 12.19049 3967 ft 250 kts 228°
2026-05-06 18:24 48.38673 12.17000 3966 ft 226 kts 257°
2026-05-06 18:24 48.38618 12.14680 3980 ft 223 kts 281°
2026-05-06 18:24 48.38878 12.12347 3970 ft 233 kts 275°
2026-05-06 18:24 48.38828 12.09944 3970 ft 220 kts 265°
2026-05-06 18:25 48.38620 12.07753 3969 ft 206 kts 264°
2026-05-06 18:25 48.38441 12.05687 3969 ft 192 kts 266°
2026-05-06 18:25 48.38308 12.03757 3984 ft 177 kts 266°
2026-05-06 18:25 48.38182 12.01998 3990 ft 161 kts 266°
2026-05-06 18:26 48.38062 12.00405 3983 ft 148 kts 266°
2026-05-06 18:26 48.37946 11.98828 3697 ft 153 kts 267°
2026-05-06 18:26 48.37830 11.97294 3466 ft 142 kts 266°
2026-05-06 18:26 48.37720 11.95834 3274 ft 136 kts 266°
2026-05-06 18:27 48.37619 11.94467 3104 ft 126 kts 267°
2026-05-06 18:27 48.37524 11.93189 2991 ft 123 kts 266°
2026-05-06 18:27 48.37436 11.91933 2737 ft 119 kts 265°
2026-05-06 18:27 48.37343 11.90673 2620 ft 123 kts 263°
2026-05-06 18:28 48.37237 11.89393 2435 ft 123 kts 264°
2026-05-06 18:28 48.37142 11.88123 2271 ft 125 kts 263°
2026-05-06 18:28 48.37047 11.86820 2106 ft 126 kts 262°
2026-05-06 18:28 48.36939 11.85515 1940 ft 126 kts 264°
2026-05-06 18:29 48.36852 11.84168 1762 ft 127 kts 261°
2026-05-06 18:29 48.36744 11.82859 1577 ft 126 kts 262°
2026-05-06 18:29 48.36643 11.81535 1472 ft 123 kts 263°
2026-05-06 18:29 48.36565 11.80518 1458 ft 64 kts 262°
2026-05-06 18:30 48.36521 11.79982 1461 ft 40 kts 262°
2026-05-06 18:30 48.36441 11.79684 1463 ft 23 kts 235°
2026-05-06 18:30 48.36364 11.79527 1464 ft 14 kts 234°
2026-05-06 18:30 48.36338 11.79473 1465 ft 0 kts 234°
2026-05-06 18:31 48.36338 11.79472 1465 ft 0 kts 234°
2026-05-06 18:31 48.36337 11.79471 1465 ft 1 kts 234°
2026-05-06 18:32 48.36312 11.79420 1465 ft 8 kts 234°
2026-05-06 18:32 48.36276 11.79348 1466 ft 10 kts 229°
2026-05-06 18:32 48.36216 11.79302 1467 ft 11 kts 187°
2026-05-06 18:32 48.36128 11.79310 1468 ft 12 kts 175°
2026-05-06 18:33 48.36046 11.79325 1468 ft 11 kts 173°
2026-05-06 18:33 48.35992 11.79335 1469 ft 3 kts 174°
2026-05-06 18:33 48.35990 11.79335 1469 ft 0 kts 174°
2026-05-06 18:34 48.35987 11.79336 1469 ft 3 kts 174°
2026-05-06 18:34 48.35939 11.79350 1470 ft 9 kts 155°
2026-05-06 18:34 48.35863 11.79383 1470 ft 12 kts 172°
2026-05-06 18:34 48.35798 11.79394 1471 ft 11 kts 174°
2026-05-06 18:35 48.35736 11.79405 1471 ft 11 kts 174°
2026-05-06 18:35 48.35659 11.79418 1472 ft 10 kts 174°
2026-05-06 18:35 48.35584 11.79429 1473 ft 11 kts 173°
2026-05-06 18:35 48.35488 11.79447 1473 ft 13 kts 174°
2026-05-06 18:36 48.35397 11.79462 1473 ft 12 kts 173°
2026-05-06 18:36 48.35312 11.79477 1474 ft 11 kts 174°
2026-05-06 18:36 48.35233 11.79490 1474 ft 10 kts 174°
2026-05-06 18:36 48.35168 11.79500 1474 ft 10 kts 174°
2026-05-06 18:37 48.35091 11.79515 1474 ft 11 kts 172°
2026-05-06 18:37 48.35033 11.79510 1474 ft 5 kts 239°
2026-05-06 18:37 48.35027 11.79458 1474 ft 4 kts 263°
2026-05-06 18:37 48.35023 11.79413 1474 ft 3 kts 263°
2026-05-06 18:38 48.35020 11.79381 1475 ft 2 kts 263°
2026-05-06 18:38 48.35020 11.79372 1475 ft 0 kts 263°